Regional Weather Roundup
Issued by NWS

Home | Current Version | Previous Version | Text Only | Print | Product List | Glossary On
Versions: 1 2 3 4 5 6 7 8 9 10 11 12 13 14 15 16 17 18 19 20 21 22 23 24 25 26 27 28 29 30 31 32 33 34 35 36 37 38 39 40 41 42 43 44 45 46 47 48 49 50
987
ASUS43 KMPX 290410
RWRMN
WEATHER ROUNDUP FOR MINNESOTA
NATIONAL WEATHER SERVICE TWIN CITIES/CHANHASSEN MN
1100 PM CDT SUN AUG 28 2016


NOTE: "FAIR" INDICATES FEW OR NO CLOUDS BELOW 12,000 FEET WITH NO
SIGNIFICANT WEATHER AND/OR OBSTRUCTIONS TO VISIBILITY. N/A MEANS
CURRENT SKY AND/OR WEATHER CONDITIONS ARE NOT AVAILABLE.

MNZ060>063-068>070-290500-
   Twin Cities Metro

CITY           SKY/WX    TMP DP  RH WIND       PRES   REMARKS
TWIN CITIES    PTCLDY    74  67  78 SE8       30.13R
ST PAUL        CLEAR     72  68  87 SE7       30.13R
CRYSTAL        CLEAR     75  66  73 SE9       30.11R
BLAINE         CLEAR     75  70  83 SE8       30.13R
LAKEVILLE      CLEAR     66  66 100 CALM      30.14S
EDEN PRAIRIE   CLEAR     74  68  81 SE7       30.11S
LAKEVILLE      CLEAR     66  66 100 CALM      30.14S
SOUTH ST PAUL  CLEAR     74  69  84 SE5       30.13S
LAKE ELMO      FAIR      72  70  94 SE6       30.15S
$$
MNZ001>005-007-008-013>017-022>024-027-028-290500-
   Northwest Minnesota

CITY           SKY/WX    TMP DP  RH WIND       PRES   REMARKS
BEMIDJI        CLOUDY    72  68  89 SE12      30.02F
HALLOCK        CLOUDY    72  66  83 E8        29.97S
ROSEAU         CLOUDY    70  64  83 SE10      29.99F
WARROAD        CLOUDY    64  61  88 E6        30.03R
THIEF RVR FALL CLOUDY    70  66  88 E5        29.99R
CROOKSTON      CLOUDY    70  63  78 SE13      29.95F THUNDER
FOSSTON        TSTM      68  63  83 S25G33    30.00F
DETROIT LAKES  CLOUDY    77  70  78 S14G21    30.02F
MOORHEAD       CLOUDY    79  73  83 S15       29.96F
PARK RAPIDS    CLOUDY    76  69  79 SE14      30.05F
MAHNOMEN       TSTM      77  71  80 SE15G28   29.99R
$$
MNZ006-009>011-018-025>026-290500-
   North Central Minnesota

CITY           SKY/WX    TMP DP  RH WIND       PRES   REMARKS
BAUDETTE       CLOUDY    62  59  90 VRB6      30.04S
FLAG ISLAND    CLOUDY    66  63  88 CALM      30.01F
INTL FALLS     LGT RAIN  65  63  93 SE17G23   30.04F
WASKISH        TSTM      66  61  82 E15G28    30.05S
BIG FORK       CLOUDY    70  64  83 S8        30.08F
LONGVILLE      CLOUDY    72  68  88 SE6       30.09F
GRAND RAPIDS   CLOUDY    69  66  90 SE12      30.11F
CRANE LAKE     CLOUDY    63  61  94 CALM      30.12F
ORR            CLOUDY    64  61  88 SE6       30.08S
COOK           PTCLDY    64  63  94 SE3       30.11F
WALKER         CLOUDY    72  68  89 SE7       30.05F
$$
MNZ012-019>021-037-290500-
   Northeast Minnesota

CITY           SKY/WX    TMP DP  RH WIND       PRES   REMARKS
DULUTH         PTCLDY    63  62  97 SE7       30.17S
ELY            MOCLDY    64  61  88 SE9       30.15F
HIBBING        CLOUDY    64  61  90 SE10      30.12F
EVELETH        CLOUDY    64  60  88 SE9       30.15F
DULUTH HARBOR  PTCLDY    66  63  88 NE12      30.17S
TWO HARBORS    CLOUDY    64  61  88 NE3       30.17S
SILVER BAY     CLOUDY    63  63 100 CALM      30.18R
GRAND MARAIS     N/A     60  58  92 N3        30.19S
G MARAIS ARPRT CLOUDY    57  54  88 E3        30.23R
$$
MNZ029>031-032-039>041-046>048-054>057-064-290500-
   West Central Minnesota

CITY           SKY/WX    TMP DP  RH WIND       PRES   REMARKS
FERGUS FALLS   CLOUDY    75  73  94 S14       30.02S
WHEATON        PTCLDY    79  73  83 SE12G17   30.02R
MORRIS         CLEAR     75  72  88 SE9       30.03R
ALEXANDRIA     CLOUDY    74  69  85 SE9       30.09R
ELBOW LAKE     FAIR      75  72  91 SE14G21   30.04R
WADENA         CLOUDY    72  66  83 SE10      30.06F
GLENWOOD       CLOUDY    75  70  83 S12       30.09R
APPLETON       CLEAR     77  72  83 S10G17    30.03S
BENSON         CLEAR     75  68  78 S12G17    30.05R
ORTONVILLE     CLEAR     75  72  88 CALM      30.02S
MADISON        CLEAR     73  72  94 S9        30.04S
WILLMAR        FAIR      73  70  88 SE8       30.09S
$$
MNZ033>034-036-042>043-049>051-058-059-290500-
   Central Minnesota

CITY           SKY/WX    TMP DP  RH WIND       PRES   REMARKS
ST CLOUD       CLOUDY    72  70  93 SE7       30.11R
SAUK CENTRE    FAIR      72  68  89 SE8       30.09R
PAYNESVILLE    CLEAR     74  68  82 SE10      30.10R
AITKIN         CLOUDY    73  64  73 SE9       30.10F
PINE RIVER     CLOUDY    72  70  94 SE8       30.11F
BRAINERD       CLEAR     71  68  90 SE6       30.10S
STAPLES        CLOUDY    72  66  83 SE7       30.08F
LONG PRAIRIE   FAIR      72  68  88 SE8       30.09S
LITTLE FALLS   CLOUDY    70  66  88 SE6       30.10R
LITCHFIELD     CLEAR     75  72  88 SE5       30.11R
BUFFALO        CLEAR     73  67  83 SE5       30.12S
MAPLE LAKE     CLEAR     73  70  91 SE3       30.12R
HUTCHINSON     CLOUDY    72  70  93 SE6       30.11F
$$
MNZ037-044-045-052-053-290500-
   East Central Minnesota

CITY           SKY/WX    TMP DP  RH WIND       PRES   REMARKS
PRINCETON      CLEAR     72  68  88 E3        30.12R
MORA           CLEAR     68  64  88 E5        30.15R
CAMBRIDGE      CLEAR     73  64  73 SE5       30.12R
RUSH CITY      PTCLDY    68  66  93 CALM      30.14R
MOOSE LAKE     MOCLDY    64  63  94 CALM      30.14S
HINCKLEY       FAIR      68  66  94 E3        30.15R
CLOQUET        CLOUDY    64  61  88 E5        30.16F FOG
MCGREGOR       CLOUDY    68  64  88 SE9       30.13F
$$
MNZ071>073-080-081-089-090-097-098-290500-
   Southwest Minnesota

CITY           SKY/WX    TMP DP  RH WIND       PRES   REMARKS
MONTEVIDEO     CLEAR     75  72  88 S9        30.07S
GRANITE FALLS  CLEAR     75  72  89 SE9       30.08S
CANBY          CLEAR     76  72  88 S7        30.05F
MARSHALL       CLEAR     75  72  90 S12       30.07S
REDWOOD FALLS  CLEAR     74  68  81 S13       30.08S
OLIVIA         CLEAR     72  68  88 SE7       30.08S
PIPESTONE      CLEAR     75  72  88 S10       30.11S
WINDOM         CLOUDY    73  68  83 S7        30.12S
WORTHINGTON    PTCLDY    72  67  84 S8        30.13S
JACKSON          N/A     72  64  78 S7        30.14F
TRACY          CLEAR     75  72  89 S10       30.10R
SLAYTON        CLEAR     72  70  94 S7        30.12S
$$
MNZ065>067-074>077-082>085-091>093-290500-
   South Central Minnesota

CITY           SKY/WX    TMP DP  RH WIND       PRES   REMARKS
MANKATO        CLOUDY    73  68  83 SE9       30.12F
NEW ULM          N/A     73  72  94 SE8       30.11S
ST JAMES       PTCLDY    68  64  88 SE7       30.13S
FAIRMONT       PTCLDY    71  68  90 S7        30.13F
GLENCOE        CLEAR     73  71  93 SE7       30.11S
FARIBAULT      CLOUDY    73  70  88 SE6       30.15S
OWATONNA       PTCLDY    73  68  83 SE5       30.15S
WASECA         MOCLDY    72  70  94 E5        30.16S
ALBERT LEA     PTCLDY    73  72  94 SE3       30.15F
$$
MNZ078>079-086>088-094>096-290500-
   Southeast Minnesota

CITY           SKY/WX    TMP DP  RH WIND       PRES   REMARKS
ROCHESTER      CLEAR     71  70  96 SE8       30.17S
RED WING       CLOUDY    73  70  88 SE7       30.14S
STANTON        CLOUDY    75  68  78 S7        30.13S
DODGE CENTER   PTCLDY    70  66  88 SE7       30.17S
WINONA         CLOUDY    70  68  94 SE3       30.17S
AUSTIN         PTCLDY    72  68  88 SE5       30.16S
PRESTON        PTCLDY    71  67  90 SE3       30.19S
$$
ABBREVIATIONS USED IN REMARKS
   TC - TEMPERATURES IN CELSIUS
  WCI - WIND CHILL INDEX
   HX - HEAT INDEX
  VSB - VISIBILITY
$$




USA.gov is the U.S. government's official web portal to all federal, state and local government web resources and services.